RH
71 94 78 69 69 78 79 83 82 83 80 76 71 54 47 52 38 57 56 54 56 76 78 72 72 74 76 67 66 58 41 30 29 38 34 36 40 39 52 69 90 78 30
79 94 83 70 71 76 77 79 76 76 73 71 58 38 49 45 49 44 34 27 37 47 47 56 61 73 71 66 60 44 29 30 43 62 60 58 57 60 84 86 89 68 29
86 99 79 71 76 78 81 76 72 79 55 48 42 34 55 54 63 64 38 18 14 14 23 56 63 65 64 59 45 29 36 54 67 80 71 92 71 87 89 89 84 70 39
90 99 99 79 77 84 74 69 78 81 49 43 35 42 60 63 68 64 38 16 14 18 21 51 60 60 55 44 30 35 62 69 78 77 96 93 95 85 88 84 81 73 80
92 94 98 74 84 78 69 78 91 63 58 44 38 50 64 80 81 61 36 20 18 25 25 41 51 45 40 31 38 43 60 74 75 99 100 99 99 79 65 62 86 84 85
91 91 88 85 82 71 76 75 68 54 48 48 43 54 68 78 80 62 37 24 23 23 27 30 33 32 30 38 42 54 63 74 96 98 97 89 93 50 43 39 45 74 89
88 96 88 87 78 72 75 67 57 36 25 48 47 53 63 77 82 58 46 30 26 26 25 25 28 29 35 39 42 47 52 61 93 88 89 92 44 34 28 23 23 27 52
90 100 90 95 82 71 72 66 43 26 25 34 55 53 65 80 98 69 50 40 27 31 30 28 29 32 37 40 43 46 44 46 76 87 66 74 45 42 36 25 17 13 12
94 100 91 96 85 79 73 67 43 23 26 43 64 53 74 91 98 70 57 50 38 28 33 33 33 34 36 36 39 41 44 47 85 59 56 88 47 45 42 37 24 16 12
100 100 97 97 91 89 80 72 57 26 23 34 34 48 65 55 38 52 53 49 45 32 29 35 36 37 37 37 39 40 44 47 85 56 78 64 50 48 46 42 41 27 15
100 100 100 100 100 100 97 75 67 39 22 22 27 27 31 68 44 48 49 52 50 46 32 29 36 38 39 38 38 40 43 66 80 81 80 53 51 49 48 48 46 43 29
98 100 100 100 100 100 97 83 82 60 42 34 30 24 54 44 57 37 39 42 45 44 39 32 29 36 42 43 42 40 46 46 53 68 72 52 51 52 50 49 50 50 46
93 88 100 100 100 99 97 98 97 87 67 58 53 48 42 27 21 22 24 26 30 36 41 39 36 38 37 40 43 45 44 44 52 51 53 49 49 52 53 52 50 52 52
88 86 87 96 92 98 100 96 98 94 68 68 56 52 47 41 39 26 26 25 24 29 36 36 38 34 30 34 39 44 45 47 51 56 59 50 49 52 54 56 54 51 54
96 82 90 94 95 95 96 99 98 96 66 71 62 58 53 48 44 49 44 28 31 33 45 58 56 55 47 48 46 46 51 57 60 67 64 63 60 68 70 63 59 58 55
91 97 97 93 97 98 96 95 97 95 85 69 63 58 58 64 56 51 53 38 47 54 61 68 71 71 71 70 69 72 72 77 74 74 75 76 75 77 78 77 74 65 77
78 82 92 83 88 95 96 93 97 84 76 74 73 66 64 69 75 74 74 76 77 78 75 73 73 73 72 75 75 79 83 81 82 82 82 81 84 82 84 84 83 81 72
69 78 85 80 80 81 94 84 89 82 79 78 76 75 73 70 71 75 80 82 86 87 88 87 86 85 84 87 89 97 96 88 82 84 83 82 82 82 84 84 87 89 85
67 75 82 87 86 84 84 85 83 82 83 83 82 81 80 80 80 78 76 78 83 85 88 89 91 91 93 98 97 90 89 89 80 82 79 82 81 79 84 87 84 92 92
69 74 79 74 82 86 87 87 85 80 79 78 78 80 83 86 86 85 84 84 86 86 87 91 94 92 86 92 93 85 77 80 74 69 67 81 87 75 75 77 82 84 92
70 67 68 70 73 79 79 79 80 75 74 75 80 84 88 88 88 86 86 87 89 89 92 93 94 94 92 94 90 91 97 80 71 69 85 85 78 78 78 79 83 83 84
31 54 55 56 61 68 67 68 66 66 72 73 65 78 84 84 83 84 85 83 86 86 86 86 93 93 96 99 98 100 97 71 71 77 79 78 79 77 80 81 79 80 80
31 28 28 36 33 42 50 51 55 61 64 66 61 64 67 70 70 67 67 73 77 84 83 85 85 98 98 98 98 100 95 70 75 83 80 83 82 83 84 80 79 81 81
31 30 28 28 28 33 42 47 50 55 55 46 43 43 43 43 45 49 54 57 57 55 51 50 52 52 58 90 92 100 99 96 98 90 84 87 85 84 84 92 74 76 83
32 31 31 31 33 35 37 38 36 34 34 34 34 34 35 35 36 38 39 40 40 40 39 38 38 39 43 57 97 97 99 100 98 96 98 90 84 78 85 94 82 76 78
34 32 34 36 35 34 33 33 33 32 32 32 33 34 36 37 38 39 40 40 40 40 40 39 39 39 40 46 70 87 94 97 97 91 96 93 87 84 82 89 92 75 81
Wind_Speed
21 21 20 18 16 12 10 8 6 4 2 1 3 6 12 13 13 13 11 9 8 11 11 10 9 8 8 9 9 10 11 12 14 14 12 10 10 13 15 16 15 11 14
24 21 21 17 15 13 10 8 6 4 3 4 6 10 14 15 16 15 13 10 7 6 6 7 7 7 7 8 8 10 11 12 13 14 14 14 14 15 16 17 16 12 12
24 21 21 18 16 14 11 9 8 7 9 9 9 12 14 14 13 13 13 12 9 8 8 10 10 9 8 7 9 11 12 13 13 14 16 12 15 16 16 17 16 13 13
24 22 21 20 17 15 11 9 10 9 10 10 12 14 14 13 12 12 13 13 12 11 11 11 11 9 8 9 10 12 12 13 14 14 13 11 12 15 13 14 15 13 14
23 22 21 20 17 14 12 13 13 10 7 9 13 15 15 13 10 11 12 13 13 14 13 12 11 10 9 10 11 11 11 12 13 14 12 12 10 8 9 9 11 10 12
23 21 22 21 18 14 14 12 8 5 4 8 13 15 15 14 8 9 11 12 12 13 13 13 11 10 10 11 11 12 11 11 13 10 9 8 7 9 8 7 5 6 6
22 20 23 20 18 16 13 10 6 5 8 12 13 14 14 13 9 8 9 10 10 11 12 12 11 10 10 10 10 11 10 9 7 7 7 7 8 9 9 8 6 4 2
22 20 21 18 17 16 12 8 7 8 10 10 11 12 13 11 9 7 7 8 8 8 8 8 8 7 7 7 7 7 8 7 7 6 7 7 9 10 10 9 9 7 4
20 20 20 18 16 15 12 8 7 9 10 10 11 11 11 9 6 7 6 5 5 6 6 6 6 5 5 5 5 5 5 5 4 4 5 5 8 9 10 11 11 10 8
19 19 18 17 16 15 12 9 8 9 10 10 7 9 11 8 7 7 5 4 3 2 2 3 2 2 2 2 2 2 2 3 2 4 4 5 7 8 9 10 11 11 11
19 18 17 16 16 14 11 10 9 8 9 8 8 5 4 4 3 4 5 4 3 2 1 2 1 1 2 3 3 3 3 3 3 3 4 7 8 9 8 9 10 11 10
22 18 17 15 15 14 13 11 9 8 7 7 6 5 5 5 5 5 5 5 5 4 3 3 4 4 4 5 6 5 5 6 6 6 6 8 9 10 11 10 11 11 11
22 22 16 16 15 14 12 11 10 9 8 8 6 5 5 5 6 6 6 6 6 6 5 5 6 6 7 7 7 7 8 8 7 9 9 9 9 10 11 12 11 11 11
22 21 18 15 16 14 11 12 10 8 8 7 7 7 6 6 6 6 6 7 6 5 6 6 7 8 9 9 10 10 10 10 9 10 10 10 10 11 11 12 14 13 11
16 19 18 17 16 17 14 11 10 9 8 8 7 6 7 7 6 7 7 7 6 5 5 6 6 7 8 9 10 10 10 10 11 12 12 11 11 11 12 12 13 15 15
16 15 15 15 15 16 15 13 10 9 9 9 7 5 5 5 6 7 6 7 6 6 7 7 7 7 7 9 9 10 10 10 11 12 13 13 12 13 13 13 13 14 14
15 14 14 13 14 15 14 12 11 11 10 8 7 6 6 5 5 6 7 6 6 8 8 10 10 11 11 11 11 11 12 12 14 14 15 16 17 16 15 15 14 15 16
15 17 15 15 14 14 13 12 11 10 10 9 9 9 8 8 8 9 9 8 9 10 11 12 12 13 14 14 15 13 14 16 17 18 19 20 21 20 21 19 19 18 18
18 19 19 17 15 14 14 14 13 13 13 13 13 12 11 12 12 12 13 13 13 14 15 16 16 16 17 16 18 19 19 20 21 22 22 23 24 24 24 25 24 23 21
20 21 20 18 17 16 16 17 16 17 17 17 17 16 15 16 16 17 17 17 17 18 19 19 20 19 22 22 22 23 23 23 24 23 23 22 20 21 20 21 24 24 23
15 17 18 18 17 18 18 18 17 17 16 16 17 18 18 19 20 20 21 20 21 21 21 22 23 24 24 24 24 24 18 21 22 19 15 15 14 14 15 17 16 18 19
15 17 17 17 18 18 18 18 18 17 17 17 18 19 21 21 22 23 24 25 26 26 25 25 25 25 26 25 23 22 17 15 17 12 10 10 14 18 17 18 19 17 17
17 18 19 20 20 21 21 21 21 21 21 20 20 22 22 23 24 25 26 27 27 28 28 28 28 27 25 25 22 22 13 14 12 11 14 13 16 15 15 17 17 18 17
20 20 20 20 21 21 21 20 20 19 19 20 20 21 22 23 24 24 24 24 25 25 26 27 27 28 27 26 25 25 25 24 13 12 13 13 16 16 20 16 19 18 18
19 22 21 21 21 19 18 18 18 18 19 20 22 23 24 25 25 25 26 26 26 27 28 28 27 27 27 26 25 25 24 22 20 20 17 16 14 16 17 15 19 19 19
20 23 22 20 19 18 18 18 18 18 19 20 21 21 21 21 20 20 20 21 21 21 21 22 22 22 22 23 23 22 25 22 18 18 17 18 18 18 17 18 19 17 16
Wind_Direction
167 164 164 173 173 165 170 170 159 161 156 143 106 102 110 96 97 101 103 108 128 114 114 110 105 95 90 79 60 42 41 56 68 71 76 80 70 59 56 53 67 54 60
161 162 163 171 168 167 175 170 157 154 134 131 114 113 118 104 95 94 93 96 108 119 115 110 103 100 92 72 53 47 58 70 71 73 76 69 69 67 61 54 48 56 60
157 161 160 164 169 169 173 169 154 137 115 108 113 121 125 112 98 85 78 81 90 96 102 106 102 99 90 73 62 67 72 74 78 77 72 69 68 65 54 40 34 59 60
154 159 161 167 168 168 171 158 143 139 109 105 118 126 128 116 101 84 73 75 83 92 108 111 105 100 91 79 77 81 78 79 77 85 77 74 62 64 59 46 47 56 58
156 156 166 164 163 173 160 151 142 134 102 111 123 128 125 115 105 88 80 80 83 90 105 111 108 104 95 86 83 89 87 89 80 73 76 77 62 50 33 33 45 47 49
158 158 162 160 166 166 162 153 150 121 126 132 127 128 128 120 119 107 92 88 91 97 105 109 109 106 99 94 91 92 93 97 79 76 72 55 45 29 20 16 25 56 56
158 161 162 168 166 162 163 156 148 131 126 134 135 133 132 128 146 121 101 93 99 102 109 115 119 116 109 103 101 99 95 94 86 70 59 54 35 37 30 31 28 1 295
160 159 165 169 170 166 167 163 145 130 133 136 138 141 139 135 149 133 112 93 89 87 90 97 103 100 92 88 92 89 84 78 66 57 50 42 33 31 28 23 21 20 11
164 160 166 173 176 170 170 168 144 142 146 136 142 146 142 155 152 150 145 120 110 118 115 107 100 98 94 83 78 72 67 55 57 35 35 37 19 21 21 18 13 12 12
169 164 166 172 173 175 174 171 153 149 160 166 150 155 156 163 150 147 159 150 121 108 120 105 98 81 51 41 35 27 23 18 360 2 3 350 358 10 11 12 12 8 5
172 171 169 171 172 172 173 179 170 155 162 176 178 179 162 163 162 167 192 190 190 201 211 238 262 313 328 325 326 324 322 311 310 313 328 336 343 347 354 359 3 4 3
175 177 178 177 177 176 176 184 177 171 161 166 177 195 198 207 216 220 233 233 234 235 240 260 271 279 286 298 310 312 311 300 295 295 306 325 331 334 336 345 348 352 352
184 187 180 181 183 185 185 180 179 179 183 189 198 209 217 225 235 236 245 245 247 246 252 261 273 270 272 283 293 299 301 300 295 295 296 311 319 320 323 326 332 335 339
189 195 190 193 197 192 191 187 190 188 194 201 211 220 229 237 237 241 244 250 253 252 244 253 262 266 270 278 285 291 298 299 299 293 295 304 307 310 313 313 315 319 322
195 195 196 200 203 202 201 200 200 199 201 205 216 227 230 238 243 243 250 247 251 247 250 262 268 271 276 279 288 294 297 298 298 298 298 300 297 300 305 304 302 308 313
194 197 199 206 203 204 206 209 211 210 208 209 219 229 227 238 244 242 247 246 252 255 258 262 267 277 281 285 288 290 294 294 294 296 299 299 296 295 296 299 300 300 293
204 204 205 204 200 201 205 210 210 212 211 213 222 234 238 243 249 247 245 248 257 263 263 266 269 272 276 283 288 286 285 285 285 289 294 293 294 294 292 291 291 293 291
211 210 210 212 202 201 205 210 212 215 219 223 231 240 246 254 258 261 259 256 258 264 267 270 274 278 283 284 285 280 281 284 285 286 288 290 292 291 291 287 286 282 283
216 218 220 220 217 213 214 219 225 227 232 236 241 249 254 257 260 263 265 263 263 265 268 270 274 279 281 279 280 282 283 283 286 285 286 286 289 289 287 286 280 276 274
217 221 224 225 220 221 224 227 231 236 240 243 248 251 255 257 259 262 265 267 266 268 269 274 275 275 280 281 279 284 287 287 291 290 290 287 285 286 286 284 284 280 271
221 214 216 219 217 219 224 228 233 241 245 247 248 250 253 256 257 261 264 267 267 268 271 270 273 276 277 281 282 287 287 294 290 287 286 286 281 285 290 293 295 295 289
231 228 224 224 227 228 232 234 239 245 250 252 256 255 256 260 263 264 266 269 270 272 272 272 273 276 279 278 280 280 291 290 287 284 283 276 282 288 289 290 294 290 290
238 236 234 233 233 233 234 239 244 249 256 259 262 264 264 265 266 267 268 268 270 271 272 272 273 273 273 275 275 271 277 276 279 277 280 279 286 285 282 289 291 288 283
237 237 238 239 237 236 235 238 240 245 251 257 261 264 266 267 268 268 268 268 269 269 271 272 273 275 273 269 272 269 270 269 269 277 274 275 281 287 291 296 295 289 283
243 236 234 236 235 235 234 236 240 247 253 260 262 265 266 268 269 269 268 268 268 271 273 274 274 273 271 268 263 267 274 269 262 266 272 279 270 273 285 297 297 294 291
250 238 231 227 227 230 235 241 248 254 259 263 265 265 266 266 266 266 266 267 268 270 272 274 274 274 273 269 258 258 263 261 259 263 263 275 281 282 282 286 288 293 289